#timestamp,LO_Frequency,Hit,StdDev 
1456005615.6,286046992.2,Y
1456005635.4,286046998.2,P
1456005655.3,286046999.3,N
1456005675.1,286046997.2,N
1456005695.8,286047000.8,N
1456005715.7,286046998.4,N
1456005735.5,286046998.9,N
1456005755.3,286046996.8,N
1456005775.2,286046996.7,N
1456005795.9,286046997.7,N
1456005815.7,286046995.9,N
1456005835.5,286046995.7,N
1456005855.4,286046995.0,N
1456005875.2,286046997.2,N
1456005895.0,286046996.6,N
1456005895.9,286046996.6,N
1456005915.8,286046995.6,N
1456005935.6,286046993.7,Y
1456005955.4,286046996.5,P
1456005975.3,286046998.5,P
1456005995.1,286047000.8,N
1456006015.8,286046999.1,N
1456006035.7,286046999.3,N
1456006055.5,286046998.7,N
1456006075.3,286046998.1,N
1456006095.2,286047004.0,Y
1456006115.9,286047002.9,P
1456006135.7,286047005.5,N
1456006155.6,286047005.5,N
1456006175.4,286047002.9,N
1456006195.2,286047006.7,N
1456006215.1,286047008.5,Y
1456006216.0,286047008.5,P
1456006235.8,286047003.4,N
1456006255.6,286047003.1,N
1456006275.5,286047003.7,N
1456006295.3,286047005.9,N
1456006315.1,286047005.5,N
1456006335.9,286047004.5,N
1456006355.7,286047005.0,N
1456006375.5,286047004.5,N
1456006395.4,286047007.4,Y
1456006415.2,286047003.3,P
1456006435.0,286047002.9,P
1456006435.9,286047002.9,P
1456006455.8,286047003.0,Y
1456006475.6,286047002.0,P
1456006495.4,286047000.2,N
1456006515.3,286047005.9,P
1456006535.1,286047005.1,N
1456006536.0,286047005.1,N
1456006555.8,286047005.6,N
1456006575.7,286047001.3,N
1456006595.5,286047000.5,N
1456006615.3,286047001.9,N
1456006635.1,286046997.2,N
1456006655.9,286046995.3,N
1456006675.7,286047001.1,N
1456006695.5,286046998.7,N
1456006715.4,286046998.9,N
1456006735.2,286047002.3,N
1456006755.0,286047000.0,N
1456006755.9,286047000.0,N
1456006775.8,286046995.3,N
1456006795.6,286046997.5,N
1456006815.4,286046995.2,N
1456006835.3,286046993.7,N
1456006855.1,286046993.1,N
1456006856.0,286046993.1,N
1456006875.8,286046990.6,N
1456006895.7,286046992.6,N
1456006915.5,286046993.0,N
1456006935.3,286046990.7,N
1456006955.1,286046988.2,N
1456006975.9,286046987.6,N
1456006995.7,286046989.6,N
1456007015.5,286046991.2,N
1456007035.4,286046990.1,N
1456007055.2,286046991.3,N
1456007075.0,286046992.4,N
1456007075.9,286046992.4,N
1456007095.8,286046994.2,N
1456007115.6,286046994.7,N
1456007135.4,286046991.9,N
1456007155.3,286046992.3,N
1456007175.1,286046990.5,N
1456007176.0,286046990.5,N
1456007195.8,286046994.4,N
1456007215.7,286046990.8,N
1456007235.5,286046991.1,N
1456007255.3,286046991.1,N
1456007275.2,286046992.7,N
1456007295.9,286046996.3,N
1456007315.7,286046996.3,N
1456007335.5,286046996.4,N
1456007355.4,286046998.9,N
1456007375.2,286046999.4,N
1456007395.0,286047002.4,N
1456007395.9,286047002.4,N
1456007415.8,286047004.7,N
1456007435.6,286047005.7,N
1456007455.4,286047007.0,N
1456007475.3,286047010.7,N
1456007495.1,286047011.2,N
1456007496.0,286047011.2,N
1456007515.8,286047013.4,N
1456007535.7,286047015.4,N
1456007555.5,286047010.9,N
1456007575.3,286047016.7,N
1456007595.2,286047017.2,N
1456007615.9,286047015.3,N
1456007635.7,286047015.3,N
1456007655.6,286047017.1,N
1456007675.4,286047014.3,N
1456007695.2,286047015.7,N
1456007715.0,286047016.9,N
1456007715.9,286047016.9,N
1456007735.8,286047019.7,N
1456007755.6,286047017.5,N
1456007775.4,286047018.4,N
1456007795.3,286047016.2,N
1456007815.1,286047016.0,N
1456007835.8,286047019.7,N
1456007855.7,286047019.7,N
1456007875.5,286047022.9,Y
1456007895.3,286047008.0,P
1456007915.2,286047007.1,P
1456007935.9,286047006.8,P
1456007955.7,286047007.5,Y
1456007975.6,286046995.1,P
1456007995.4,286046997.3,N
1456008015.2,286046999.8,N
1456008035.1,286047002.7,N
1456008036.0,286047002.7,N
1456008055.8,286046998.7,N
1456008075.6,286046996.9,N
1456008095.5,286046999.0,N
1456008115.3,286047000.6,N
1456008135.1,286046998.1,N
1456008155.8,286046998.3,N
1456008175.7,286047000.5,N
1456008195.5,286046999.3,N
1456008215.3,286046994.9,N
1456008235.2,286046996.8,N
1456008255.9,286046998.0,N
1456008275.7,286046995.6,N
1456008295.6,286046993.5,N
1456008315.4,286046990.2,N
1456008335.2,286046992.4,N
1456008355.1,286046991.7,N
1456008356.0,286046991.7,N
1456008375.8,286046996.2,N
1456008395.6,286046993.5,N
1456008415.5,286046992.3,N
1456008435.3,286046995.4,N
1456008455.1,286046999.6,N
1456008475.8,286046997.2,N
1456008495.7,286046997.1,N
1456008515.5,286046996.5,N
1456008535.3,286046995.7,N
1456008555.2,286046996.0,N
1456008575.9,286046992.2,N
1456008595.7,286046992.4,N
1456008615.6,286046992.5,N
1456008635.4,286046994.0,N
1456008655.2,286046994.4,N
1456008675.1,286046993.6,N
1456008676.0,286046993.6,N
1456008695.8,286046995.5,N
1456008715.6,286046995.1,N
1456008735.5,286046993.0,N
1456008755.3,286046996.4,N
1456008775.1,286046994.8,N
1456008795.9,286046990.8,Y
1456008815.7,286046993.6,P
1456008835.5,286046997.5,P
1456008855.4,286046997.9,N
1456008875.2,286046999.6,N
1456008895.0,286046997.3,N
1456008895.9,286046997.3,N
1456008915.7,286046999.2,N
1456008935.6,286046999.4,N
1456008955.4,286046999.6,N
1456008975.2,286046996.9,N
1456008995.1,286046999.5,N
1456008996.0,286046999.5,N
1456009015.8,286046997.1,N
1456009035.6,286046997.0,N
1456009055.5,286046999.9,N
1456009075.3,286046998.3,N
1456009095.1,286046997.1,N
1456009115.9,286046993.5,Y
1456009135.7,286046996.4,P
1456009155.5,286046995.7,P
1456009175.4,286046991.7,P
1456009195.2,286046993.0,Y
